SWA1817 KDEN-KBZN

Flight info

Callsign SWA1817
Flight time 1h 20m
Altitude 38000
Route DDRTH1 DDRTH TOCUD LOSST1
Aircraft B738/M-SADE2E3GIJ4RWZ/LB1D1

Departure

Time 2026-05-05 00:52
Airport Denver International Airport (KDEN)

Arrival

Time 2026-05-05 02:13
Airport Bozeman Yellowstone International Airport (KBZN)
Time Latitude Longitude Altitude Speed Heading
2026-05-05 00:07 39.86364 -104.67095 5356 ft 0 kts 212°
2026-05-05 00:32 39.86367 -104.67092 5362 ft 2 kts 211°
2026-05-05 00:32 39.86382 -104.67081 5363 ft 2 kts 212°
2026-05-05 00:32 39.86396 -104.67070 5363 ft 2 kts 212°
2026-05-05 00:33 39.86410 -104.67058 5363 ft 2 kts 211°
2026-05-05 00:33 39.86423 -104.67048 5362 ft 1 kts 211°
2026-05-05 00:33 39.86424 -104.67047 5362 ft 0 kts 211°
2026-05-05 00:39 39.86419 -104.67054 5362 ft 7 kts 226°
2026-05-05 00:39 39.86409 -104.67186 5365 ft 22 kts 271°
2026-05-05 00:39 39.86416 -104.67411 5365 ft 27 kts 271°
2026-05-05 00:39 39.86418 -104.67643 5365 ft 25 kts 270°
2026-05-05 00:40 39.86419 -104.67860 5365 ft 23 kts 273°
2026-05-05 00:40 39.86427 -104.68018 5365 ft 0 kts 270°
2026-05-05 00:40 39.86427 -104.68034 5365 ft 7 kts 270°
2026-05-05 00:41 39.86427 -104.68102 5365 ft 9 kts 270°
2026-05-05 00:41 39.86428 -104.68274 5364 ft 25 kts 270°
2026-05-05 00:41 39.86428 -104.68391 5365 ft 0 kts 269°
2026-05-05 00:41 39.86427 -104.68426 5365 ft 14 kts 264°
2026-05-05 00:42 39.86327 -104.68507 5362 ft 25 kts 183°
2026-05-05 00:42 39.86108 -104.68507 5363 ft 33 kts 180°
2026-05-05 00:42 39.85959 -104.68508 5363 ft 0 kts 180°
2026-05-05 00:42 39.85907 -104.68508 5362 ft 13 kts 180°
2026-05-05 00:43 39.85879 -104.68508 5365 ft 0 kts 180°
2026-05-05 00:43 39.85877 -104.68508 5363 ft 4 kts 180°
2026-05-05 00:44 39.85767 -104.68509 5364 ft 20 kts 179°
2026-05-05 00:44 39.85685 -104.68438 5362 ft 15 kts 120°
2026-05-05 00:44 39.85597 -104.68395 5365 ft 14 kts 181°
2026-05-05 00:44 39.85502 -104.68397 5365 ft 13 kts 180°
2026-05-05 00:45 39.85411 -104.68398 5363 ft 13 kts 180°
2026-05-05 00:45 39.85325 -104.68405 5365 ft 12 kts 175°
2026-05-05 00:45 39.85242 -104.68404 5363 ft 12 kts 191°
2026-05-05 00:45 39.85204 -104.68485 5365 ft 11 kts 267°
2026-05-05 00:46 39.85202 -104.68587 5365 ft 11 kts 269°
2026-05-05 00:46 39.85201 -104.68712 5363 ft 14 kts 269°
2026-05-05 00:46 39.85199 -104.68840 5362 ft 14 kts 269°
2026-05-05 00:46 39.85198 -104.68962 5365 ft 13 kts 268°
2026-05-05 00:47 39.85195 -104.69079 5365 ft 13 kts 268°
2026-05-05 00:47 39.85195 -104.69193 5365 ft 12 kts 272°
2026-05-05 00:47 39.85198 -104.69305 5363 ft 12 kts 272°
2026-05-05 00:47 39.85200 -104.69413 5365 ft 12 kts 270°
2026-05-05 00:48 39.85200 -104.69468 5365 ft 0 kts 270°
2026-05-05 00:49 39.85201 -104.69554 5363 ft 19 kts 270°
2026-05-05 00:50 39.85242 -104.69651 5365 ft 0 kts 342°
2026-05-05 00:50 39.85266 -104.69656 5363 ft 0 kts 356°
2026-05-05 00:50 39.85268 -104.69656 5363 ft 2 kts 360°
2026-05-05 00:50 39.85281 -104.69656 5365 ft 3 kts
2026-05-05 00:51 39.85294 -104.69656 5364 ft 15 kts
2026-05-05 00:51 39.85666 -104.69652 5366 ft 90 kts
2026-05-05 00:51 39.86512 -104.69643 5363 ft 152 kts 360°
2026-05-05 00:52 39.87719 -104.69634 5615 ft 190 kts 359°
2026-05-05 00:52 39.89132 -104.69575 5997 ft 217 kts 359°
2026-05-05 00:52 39.90715 -104.69436 6607 ft 232 kts
2026-05-05 00:52 39.92267 -104.69118 7720 ft 223 kts
2026-05-05 00:53 39.93871 -104.68847 8168 ft 245 kts
2026-05-05 00:53 39.95648 -104.68650 8441 ft 271 kts
2026-05-05 00:53 39.97569 -104.68531 9111 ft 281 kts
2026-05-05 00:53 39.99557 -104.68459 9763 ft 286 kts
2026-05-05 00:54 40.01563 -104.68408 9951 ft 290 kts
2026-05-05 00:54 40.03585 -104.68510 9954 ft 293 kts 348°
2026-05-05 00:54 40.05483 -104.69573 10128 ft 306 kts 332°
2026-05-05 00:54 40.07420 -104.70999 10309 ft 332 kts 331°
2026-05-05 00:55 40.09528 -104.72465 10625 ft 350 kts 335°
2026-05-05 00:55 40.11026 -104.73295 11067 ft 355 kts 338°
2026-05-05 00:55 40.13337 -104.74444 11885 ft 356 kts 339°
2026-05-05 00:55 40.16431 -104.75940 12966 ft 359 kts 338°
2026-05-05 00:56 40.18784 -104.77099 13726 ft 363 kts 337°
2026-05-05 00:56 40.21151 -104.78286 14413 ft 366 kts 337°
2026-05-05 00:56 40.22762 -104.79104 14873 ft 369 kts 337°
2026-05-05 00:56 40.25166 -104.80333 15594 ft 371 kts 336°
2026-05-05 00:57 40.27579 -104.81571 16291 ft 375 kts 336°
2026-05-05 00:57 40.30010 -104.82820 16962 ft 378 kts 336°
2026-05-05 00:57 40.32454 -104.84076 17620 ft 382 kts 336°
2026-05-05 00:57 40.34937 -104.85350 18284 ft 386 kts 336°
2026-05-05 00:58 40.37448 -104.86638 18869 ft 389 kts 336°
2026-05-05 00:58 40.39974 -104.87934 19463 ft 391 kts 336°
2026-05-05 00:58 40.42523 -104.89243 20042 ft 394 kts 335°
2026-05-05 00:58 40.45086 -104.90561 20609 ft 397 kts 335°
2026-05-05 00:59 40.47668 -104.91889 21171 ft 400 kts 335°
2026-05-05 00:59 40.50265 -104.93227 21722 ft 403 kts 335°
2026-05-05 00:59 40.52847 -104.94558 22257 ft 405 kts 335°
2026-05-05 00:59 40.55521 -104.95938 22782 ft 408 kts 335°
2026-05-05 01:00 40.58182 -104.97312 23277 ft 412 kts 335°
2026-05-05 01:00 40.60859 -104.98696 23728 ft 415 kts 335°
2026-05-05 01:00 40.63555 -105.00091 24165 ft 417 kts 334°
2026-05-05 01:00 40.66262 -105.01492 24591 ft 419 kts 334°
2026-05-05 01:01 40.68945 -105.02882 25013 ft 421 kts 334°
2026-05-05 01:01 40.71679 -105.04299 25422 ft 423 kts 334°
2026-05-05 01:01 40.74421 -105.05737 25820 ft 424 kts 331°
2026-05-05 01:01 40.76922 -105.07733 26170 ft 418 kts 315°
2026-05-05 01:02 40.78897 -105.10511 26572 ft 414 kts 306°
2026-05-05 01:02 40.80690 -105.13492 26984 ft 415 kts 304°
2026-05-05 01:02 40.82459 -105.16516 27358 ft 417 kts 304°
2026-05-05 01:02 40.84233 -105.19560 27740 ft 419 kts 304°
2026-05-05 01:03 40.86022 -105.22615 28134 ft 421 kts 304°
2026-05-05 01:03 40.87823 -105.25672 28525 ft 422 kts 304°
2026-05-05 01:03 40.89642 -105.28741 28863 ft 424 kts 304°
2026-05-05 01:03 40.91449 -105.31782 29175 ft 427 kts 304°
2026-05-05 01:04 40.93288 -105.34871 29555 ft 427 kts 304°
2026-05-05 01:04 40.96938 -105.40999 30613 ft 418 kts 304°
2026-05-05 01:04 40.98728 -105.44004 31184 ft 413 kts 304°
2026-05-05 01:05 41.00495 -105.46978 31664 ft 409 kts 303°
2026-05-05 01:05 41.02249 -105.49934 32090 ft 407 kts 303°
2026-05-05 01:05 41.03988 -105.52872 32545 ft 404 kts 303°
2026-05-05 01:05 41.05713 -105.55785 33071 ft 399 kts 303°
2026-05-05 01:06 41.07419 -105.58669 33574 ft 395 kts 302°
2026-05-05 01:06 41.09104 -105.61521 33985 ft 392 kts 302°
2026-05-05 01:06 41.10786 -105.64373 34298 ft 391 kts 302°
2026-05-05 01:06 41.12465 -105.67223 34567 ft 391 kts 302°
2026-05-05 01:07 41.14116 -105.70028 34847 ft 390 kts 302°
2026-05-05 01:07 41.15785 -105.72864 35154 ft 388 kts 301°
2026-05-05 01:07 41.17443 -105.75685 35442 ft 387 kts 301°
2026-05-05 01:07 41.19099 -105.78504 35687 ft 387 kts 301°
2026-05-05 01:08 41.20754 -105.81325 35944 ft 387 kts 301°
2026-05-05 01:08 41.22403 -105.84137 36199 ft 386 kts 301°
2026-05-05 01:08 41.24053 -105.86953 36446 ft 385 kts 301°
2026-05-05 01:08 41.25694 -105.89758 36681 ft 385 kts 301°
2026-05-05 01:09 41.27338 -105.92569 36917 ft 384 kts 301°
2026-05-05 01:09 41.28980 -105.95381 37127 ft 384 kts 300°
2026-05-05 01:09 41.30621 -105.98192 37314 ft 385 kts 300°
2026-05-05 01:09 41.32266 -106.01014 37528 ft 384 kts 300°
2026-05-05 01:10 41.33899 -106.03817 37756 ft 383 kts 300°
2026-05-05 01:10 41.35536 -106.06628 37876 ft 384 kts 300°
2026-05-05 01:10 41.38798 -106.12244 37848 ft 386 kts 300°
2026-05-05 01:11 41.42069 -106.17879 37863 ft 384 kts 300°
2026-05-05 01:11 41.45331 -106.23513 37849 ft 383 kts 300°
2026-05-05 01:12 41.48859 -106.28897 37847 ft 387 kts 305°
2026-05-05 01:12 41.52618 -106.34067 37823 ft 388 kts 306°
2026-05-05 01:13 41.56379 -106.39243 37831 ft 388 kts 306°
2026-05-05 01:13 41.60116 -106.44452 37821 ft 387 kts 306°
2026-05-05 01:14 41.63828 -106.49668 37811 ft 386 kts 305°
2026-05-05 01:14 41.67507 -106.54857 37812 ft 384 kts 305°
2026-05-05 01:15 41.71158 -106.60022 37799 ft 384 kts 305°
2026-05-05 01:15 41.74818 -106.65208 37785 ft 383 kts 305°
2026-05-05 01:16 41.78481 -106.70406 37767 ft 382 kts 305°
2026-05-05 01:16 41.82128 -106.75594 37785 ft 382 kts 305°
2026-05-05 01:17 41.85773 -106.80785 37797 ft 382 kts 306°
2026-05-05 01:17 41.89426 -106.85998 37817 ft 383 kts 306°
2026-05-05 01:18 41.93055 -106.91185 37823 ft 383 kts 306°
2026-05-05 01:18 41.96700 -106.96404 37831 ft 383 kts 306°
2026-05-05 01:19 42.00345 -107.01633 37833 ft 383 kts 306°
2026-05-05 01:19 42.03996 -107.06880 37819 ft 384 kts 306°
2026-05-05 01:20 42.07643 -107.12131 37817 ft 384 kts 306°
2026-05-05 01:20 42.11295 -107.17398 37799 ft 385 kts 306°
2026-05-05 01:21 42.14950 -107.22678 37775 ft 386 kts 306°
2026-05-05 01:21 42.18614 -107.27983 37780 ft 387 kts 306°
2026-05-05 01:22 42.22282 -107.33302 37773 ft 388 kts 306°
2026-05-05 01:22 42.25955 -107.38638 37785 ft 388 kts 306°
2026-05-05 01:23 42.29633 -107.43992 37790 ft 390 kts 306°
2026-05-05 01:23 42.33325 -107.49375 37783 ft 391 kts 306°
2026-05-05 01:24 42.36998 -107.54740 37790 ft 391 kts 306°
2026-05-05 01:24 42.40699 -107.60156 37794 ft 391 kts 306°
2026-05-05 01:25 42.44367 -107.65535 37797 ft 392 kts 306°
2026-05-05 01:25 42.48067 -107.70971 37794 ft 392 kts 306°
2026-05-05 01:26 42.51767 -107.76417 37790 ft 393 kts 306°
2026-05-05 01:26 42.55474 -107.81882 37795 ft 394 kts 306°
2026-05-05 01:27 42.59183 -107.87363 37797 ft 394 kts 306°
2026-05-05 01:27 42.62894 -107.92855 37798 ft 395 kts 307°
2026-05-05 01:28 42.66587 -107.98333 37798 ft 396 kts 307°
2026-05-05 01:28 42.70310 -108.03864 37809 ft 397 kts 307°
2026-05-05 01:29 42.74040 -108.09417 37810 ft 398 kts 307°
2026-05-05 01:29 42.77774 -108.14986 37823 ft 399 kts 307°
2026-05-05 01:30 42.81517 -108.20580 37833 ft 400 kts 307°
2026-05-05 01:30 42.85264 -108.26190 37862 ft 400 kts 307°
2026-05-05 01:31 42.89018 -108.31822 37880 ft 401 kts 307°
2026-05-05 01:31 42.92771 -108.37463 37900 ft 402 kts 307°
2026-05-05 01:32 42.96529 -108.43124 37917 ft 402 kts 307°
2026-05-05 01:32 43.00285 -108.48792 37914 ft 403 kts 307°
2026-05-05 01:33 43.04044 -108.54476 37919 ft 403 kts 307°
2026-05-05 01:33 43.07797 -108.60161 37913 ft 403 kts 307°
2026-05-05 01:34 43.11553 -108.65863 37899 ft 403 kts 307°
2026-05-05 01:34 43.15283 -108.71536 37885 ft 404 kts 307°
2026-05-05 01:35 43.19044 -108.77269 37863 ft 404 kts 308°
2026-05-05 01:35 43.22800 -108.83005 37856 ft 404 kts 308°
2026-05-05 01:36 43.26560 -108.88758 37845 ft 405 kts 308°
2026-05-05 01:36 43.30314 -108.94514 37856 ft 405 kts 308°
2026-05-05 01:37 43.34068 -109.00280 37866 ft 405 kts 308°
2026-05-05 01:37 43.37801 -109.06028 37868 ft 406 kts 308°
2026-05-05 01:38 43.41557 -109.11821 37879 ft 406 kts 308°
2026-05-05 01:38 43.45322 -109.17640 37888 ft 406 kts 308°
2026-05-05 01:39 43.49084 -109.23467 37899 ft 407 kts 308°
2026-05-05 01:39 43.52853 -109.29317 37908 ft 409 kts 308°
2026-05-05 01:40 43.56635 -109.35198 37923 ft 410 kts 308°
2026-05-05 01:40 43.59783 -109.40104 37920 ft 411 kts 308°
2026-05-05 01:41 43.63580 -109.46030 37921 ft 412 kts 308°
2026-05-05 01:41 43.67384 -109.51979 37907 ft 413 kts 308°
2026-05-05 01:42 43.71183 -109.57935 37899 ft 413 kts 308°
2026-05-05 01:42 43.74978 -109.63895 37921 ft 413 kts 308°
2026-05-05 01:43 43.78772 -109.69867 37909 ft 412 kts 308°
2026-05-05 01:43 43.82525 -109.75788 37889 ft 411 kts 308°
2026-05-05 01:44 43.86296 -109.81749 37892 ft 411 kts 308°
2026-05-05 01:44 43.90061 -109.87711 37889 ft 410 kts 308°
2026-05-05 01:45 43.93820 -109.93679 37884 ft 410 kts 309°
2026-05-05 01:45 43.97593 -109.99682 37385 ft 416 kts 309°
2026-05-05 01:46 43.99485 -110.02697 36890 ft 413 kts 309°
2026-05-05 01:46 44.01359 -110.05681 36539 ft 406 kts 310°
2026-05-05 01:46 44.03182 -110.08591 36107 ft 403 kts 310°
2026-05-05 01:46 44.05035 -110.11482 35716 ft 399 kts 314°
2026-05-05 01:47 44.07105 -110.14027 35317 ft 396 kts 321°
2026-05-05 01:47 44.09381 -110.16118 35075 ft 389 kts 329°
2026-05-05 01:47 44.11743 -110.17883 34826 ft 382 kts 330°
2026-05-05 01:47 44.14077 -110.19598 34522 ft 377 kts 330°
2026-05-05 01:48 44.16384 -110.21292 34130 ft 374 kts 330°
2026-05-05 01:48 44.18674 -110.22980 33747 ft 370 kts 330°
2026-05-05 01:48 44.20939 -110.24659 33320 ft 368 kts 330°
2026-05-05 01:48 44.23184 -110.26330 32951 ft 364 kts 330°
2026-05-05 01:49 44.25407 -110.27990 32572 ft 360 kts 330°
2026-05-05 01:49 44.27606 -110.29636 32191 ft 357 kts 330°
2026-05-05 01:49 44.29792 -110.31275 31822 ft 354 kts 329°
2026-05-05 01:49 44.31954 -110.32899 31453 ft 352 kts 329°
2026-05-05 01:50 44.34101 -110.34513 31087 ft 349 kts 329°
2026-05-05 01:50 44.36236 -110.36119 30728 ft 346 kts 329°
2026-05-05 01:50 44.38326 -110.37693 30390 ft 344 kts 329°
2026-05-05 01:50 44.40453 -110.39296 30036 ft 342 kts 329°
2026-05-05 01:51 44.42522 -110.40856 29635 ft 340 kts 329°
2026-05-05 01:51 44.44589 -110.42417 29278 ft 336 kts 329°
2026-05-05 01:51 44.46639 -110.43965 28903 ft 333 kts 329°
2026-05-05 01:51 44.48671 -110.45501 28537 ft 330 kts 329°
2026-05-05 01:52 44.50680 -110.47021 28197 ft 326 kts 329°
2026-05-05 01:52 44.52674 -110.48531 27840 ft 325 kts 329°
2026-05-05 01:52 44.54659 -110.50036 27469 ft 324 kts 329°
2026-05-05 01:52 44.56651 -110.51548 27135 ft 328 kts 329°
2026-05-05 01:53 44.58695 -110.53102 26777 ft 339 kts 329°
2026-05-05 01:53 44.60777 -110.54686 26398 ft 341 kts 329°
2026-05-05 01:53 44.62856 -110.56266 26018 ft 339 kts 329°
2026-05-05 01:53 44.64922 -110.57836 25644 ft 336 kts 329°
2026-05-05 01:54 44.66973 -110.59397 25280 ft 334 kts 329°
2026-05-05 01:54 44.68985 -110.60929 24917 ft 332 kts 329°
2026-05-05 01:54 44.71033 -110.62491 24568 ft 330 kts 329°
2026-05-05 01:54 44.73052 -110.64032 24218 ft 328 kts 329°
2026-05-05 01:55 44.75053 -110.65560 23871 ft 327 kts 328°
2026-05-05 01:55 44.77025 -110.67068 23519 ft 326 kts 328°
2026-05-05 01:55 44.79013 -110.68590 23107 ft 325 kts 328°
2026-05-05 01:55 44.80992 -110.70105 22720 ft 322 kts 329°
2026-05-05 01:56 44.82958 -110.71611 22376 ft 320 kts 328°
2026-05-05 01:56 44.84911 -110.73109 22014 ft 318 kts 328°
2026-05-05 01:56 44.86844 -110.74594 21671 ft 315 kts 329°
2026-05-05 01:56 44.88764 -110.76069 21341 ft 313 kts 328°
2026-05-05 01:57 44.90668 -110.77533 20988 ft 311 kts 329°
2026-05-05 01:57 44.92557 -110.78986 20652 ft 308 kts 328°
2026-05-05 01:57 44.94437 -110.80433 20317 ft 306 kts 328°
2026-05-05 01:57 44.96301 -110.81870 19977 ft 304 kts 329°
2026-05-05 01:58 44.98153 -110.83299 19664 ft 302 kts 328°
2026-05-05 01:58 44.99988 -110.84715 19327 ft 300 kts 328°
2026-05-05 01:58 45.01818 -110.86128 19035 ft 299 kts 329°
2026-05-05 01:58 45.03645 -110.87541 18678 ft 299 kts 329°
2026-05-05 01:59 45.05449 -110.88936 18352 ft 298 kts 328°
2026-05-05 01:59 45.07265 -110.90342 18009 ft 297 kts 329°
2026-05-05 01:59 45.09067 -110.91738 17639 ft 293 kts 329°
2026-05-05 01:59 45.10845 -110.93117 17286 ft 289 kts 329°
2026-05-05 02:00 45.12603 -110.94479 17054 ft 284 kts 329°
2026-05-05 02:00 45.14305 -110.95851 16791 ft 282 kts 326°
2026-05-05 02:00 45.15974 -110.97345 16502 ft 283 kts 325°
2026-05-05 02:00 45.17634 -110.98869 16215 ft 285 kts 325°
2026-05-05 02:01 45.19300 -111.00401 15936 ft 287 kts 326°
2026-05-05 02:01 45.20961 -111.01922 15670 ft 289 kts 326°
2026-05-05 02:01 45.22658 -111.03470 15354 ft 290 kts 326°
2026-05-05 02:01 45.24354 -111.05016 15089 ft 288 kts 326°
2026-05-05 02:02 45.26041 -111.06550 14766 ft 287 kts 326°
2026-05-05 02:02 45.27707 -111.08067 14497 ft 283 kts 326°
2026-05-05 02:02 45.29351 -111.09563 14226 ft 278 kts 326°
2026-05-05 02:02 45.30974 -111.11040 13960 ft 276 kts 327°
2026-05-05 02:03 45.32592 -111.12514 13687 ft 276 kts 327°
2026-05-05 02:03 45.34214 -111.13992 13377 ft 276 kts 327°
2026-05-05 02:03 45.35813 -111.15450 13075 ft 276 kts 327°
2026-05-05 02:03 45.37420 -111.16918 12806 ft 273 kts 327°
2026-05-05 02:04 45.39012 -111.18371 12508 ft 271 kts 327°
2026-05-05 02:04 45.40584 -111.19808 12239 ft 267 kts 327°
2026-05-05 02:04 45.42130 -111.21250 12027 ft 262 kts 326°
2026-05-05 02:04 45.43619 -111.22674 12032 ft 256 kts 326°
2026-05-05 02:05 45.45108 -111.24107 11790 ft 260 kts 326°
2026-05-05 02:05 45.46617 -111.25560 11559 ft 262 kts 326°
2026-05-05 02:05 45.48126 -111.27000 11306 ft 260 kts 327°
2026-05-05 02:05 45.49633 -111.28409 11058 ft 258 kts 327°
2026-05-05 02:06 45.51134 -111.29789 10804 ft 255 kts 329°
2026-05-05 02:06 45.52674 -111.30994 10522 ft 252 kts 347°
2026-05-05 02:06 45.54374 -111.30986 10394 ft 247 kts 15°
2026-05-05 02:06 45.55914 -111.29868 10203 ft 253 kts 37°
2026-05-05 02:07 45.57081 -111.27959 9971 ft 261 kts 60°
2026-05-05 02:07 45.57716 -111.25501 9634 ft 267 kts 72°
2026-05-05 02:07 45.58211 -111.22948 9279 ft 268 kts 72°
2026-05-05 02:07 45.58737 -111.20391 8916 ft 269 kts 71°
2026-05-05 02:08 45.59295 -111.17848 8547 ft 267 kts 70°
2026-05-05 02:08 45.59863 -111.15338 8185 ft 261 kts 70°
2026-05-05 02:08 45.60692 -111.13091 7840 ft 252 kts 45°
2026-05-05 02:08 45.61999 -111.11589 7723 ft 231 kts 31°
2026-05-05 02:09 45.63331 -111.10509 7568 ft 213 kts 28°
2026-05-05 02:09 45.64567 -111.09550 7402 ft 191 kts 29°
2026-05-05 02:09 45.65685 -111.08677 7126 ft 178 kts 29°
2026-05-05 02:09 45.66774 -111.07902 6801 ft 170 kts 16°
2026-05-05 02:10 45.67924 -111.07896 6547 ft 168 kts 350°
2026-05-05 02:10 45.69081 -111.08318 6372 ft 173 kts 346°
2026-05-05 02:10 45.70227 -111.08815 6103 ft 169 kts 345°
2026-05-05 02:10 45.71312 -111.09274 5875 ft 159 kts 342°
2026-05-05 02:11 45.72330 -111.09946 5635 ft 158 kts 334°
2026-05-05 02:11 45.73272 -111.10560 5460 ft 145 kts 337°
2026-05-05 02:11 45.74170 -111.11147 5297 ft 138 kts 335°
2026-05-05 02:11 45.75021 -111.11803 5059 ft 141 kts 328°
2026-05-05 02:12 45.75790 -111.12622 4882 ft 133 kts 323°
2026-05-05 02:12 45.77164 -111.14382 4473 ft 130 kts 317°
2026-05-05 02:12 45.77706 -111.15115 4459 ft 65 kts 317°
2026-05-05 02:13 45.77842 -111.15307 4455 ft 20 kts 315°
2026-05-05 02:13 45.77933 -111.15497 4453 ft 26 kts 259°
2026-05-05 02:13 45.77836 -111.15750 4452 ft 28 kts 223°
2026-05-05 02:13 45.77818 -111.15851 4452 ft 8 kts 310°
2026-05-05 02:14 45.77868 -111.15909 4451 ft 10 kts 319°
2026-05-05 02:14 45.77926 -111.15981 4450 ft 11 kts 314°
2026-05-05 02:14 45.77939 -111.16019 4449 ft 6 kts 275°
2026-05-05 02:14 45.77915 -111.16077 4450 ft 8 kts 233°
2026-05-05 02:15 45.77911 -111.16085 4450 ft 0 kts 233°